Home   Weather   Uster   Past weeks
Flag for Switzerland

Past Weather in Uster, Zurich, Switzerland — Yesterday and Last 2 Weeks

Now
52 °F

Cool.


Feels Like: 52 °F
Forecast: 44 / 36 °F
Wind: 2 mph from Northeast

Location: Zuerich-Fluntern

Current Time: Mar 28, 2020 at 10:28:31 pm

Latest Report: Mar 28, 2020 at 9:00 pm


Visibility: N/A

Pressure: 30.02 "Hg

Humidity: 53%

Dew Point: 35 °F

Location of UsterLocation

Past Weather in Uster — Graph

°F

Uster Temperature Yesterday

Maximum temperature yesterday: 53 °F (at 5:00 pm)
Minimum temperature yesterday: 30 °F (at 6:00 am)
Average temperature yesterday: 41 °F

High & Low Weather Summary for the Past Weeks

 TemperatureHumidityPressure
High65 °F (Mar 19, 2:00 pm)94% (Mar 21, 6:00 am)30.47 "Hg (Mar 21, 6:00 am)
Low26 °F (Mar 23, 7:00 am)26% (Mar 23, 4:00 pm)29.93 "Hg (Mar 27, 3:00 pm)
Average44 °F62%30.19 "Hg
* Reported Mar 13 9:00 pm — Mar 28 9:00 pm, Uster. Weather by CustomWeather, © 2020

Note: Actual official high and low records may vary slightly from our data, if they occured in-between our weather recording intervals... More about our weather records

Uster Weather History for the Previous 24 Hours

Scroll right to see more
 ConditionsComfort  
Time TempWeatherWind HumidityBarometerVisibility
9:00 pm
Sat, Mar 28
52 °FCool.2 mph53%30.02 "HgN/A
8:00 pm53 °FCool.3 mph49%30.01 "HgN/A
7:00 pm53 °FCool.3 mph48%29.99 "HgN/A
6:00 pm58 °FRefreshingly cool.2 mph37%29.96 "HgN/A
5:00 pm60 °FRefreshingly cool.2 mph37%29.94 "HgN/A
4:00 pm60 °FRefreshingly cool.6 mph38%29.95 "HgN/A
2:00 pm58 °FRefreshingly cool.3 mph40%29.97 "HgN/A
1:00 pm56 °FRefreshingly cool.2 mph43%30.00 "HgN/A
12:00 pm54 °FCool.5 mph49%30.01 "HgN/A
10:00 am48 °FCool.2 mph60%30.06 "HgN/A
9:00 am44 °FQuite cool.1 mph67%30.08 "HgN/A
8:00 am40 °FQuite cool.2 mph78%30.08 "HgN/A
7:00 am38 °FChilly.No wind82%30.08 "HgN/A
6:00 am37 °FChilly.No wind84%30.07 "HgN/A
5:00 am37 °FChilly.No wind83%30.06 "HgN/A
4:00 am38 °FChilly.1 mph80%30.05 "HgN/A
3:00 am39 °FChilly.No wind75%30.05 "HgN/A
2:00 am40 °FChilly.No wind75%30.04 "HgN/A
1:00 am42 °FQuite cool.1 mph70%30.03 "HgN/A
12:00 am41 °FQuite cool.No wind70%30.03 "HgN/A
11:00 pm
Fri, Mar 27
44 °FQuite cool.1 mph63%30.03 "HgN/A
10:00 pm44 °FQuite cool.2 mph64%30.03 "HgN/A
Weather by CustomWeather, © 2020

See weather overview

Advertising